GFSMW_sfc_30mbdewp_060.txt.gz
Dewpoint
46 47 49 52 53 54 56 56 57 57 56 55 55 55 55 54 56 56 56 54 50 53 52 50 51 51 49 48 49 49 46 43 41 36 38 38 40 41 39 40 40 41 43
46 47 49 51 52 53 54 55 56 56 56 55 54 55 55 56 56 56 55 55 54 52 54 53 51 50 50 52 51 50 48 45 43 42 42 41 40 39 40 38 39 41 41
46 47 48 49 51 51 52 54 55 56 56 55 55 55 56 55 56 55 52 53 54 55 53 55 52 52 52 53 53 52 51 49 48 46 46 44 42 44 43 41 40 40 43
45 46 48 49 50 51 52 52 54 56 56 57 55 55 53 52 52 53 54 52 54 55 53 54 53 55 54 53 54 55 54 52 50 49 47 48 48 44 45 42 43 42 42
44 46 48 48 48 50 51 52 53 54 56 56 56 54 53 52 51 53 53 53 55 56 55 55 56 57 57 57 56 56 56 54 52 50 49 47 47 46 46 45 46 44 43
43 45 48 49 48 49 50 51 52 53 56 56 56 55 54 53 52 54 53 53 53 55 56 54 56 56 55 53 54 55 56 55 54 52 51 49 48 47 45 45 48 49 44
41 44 47 48 48 48 50 50 51 52 54 55 55 55 54 53 53 53 52 52 52 53 53 54 55 53 52 52 52 53 54 55 55 54 52 52 50 50 48 47 47 48 48
41 44 46 48 48 48 49 49 51 51 53 55 54 55 55 53 52 53 52 52 51 50 52 53 52 50 50 51 52 53 52 53 54 54 55 53 53 52 51 50 48 46 47
39 43 45 48 49 49 49 49 49 51 52 53 54 54 54 54 52 51 52 52 52 51 51 52 53 52 51 52 52 52 52 53 54 54 54 54 55 55 54 53 51 48 45
38 42 45 47 49 49 49 50 49 49 51 52 53 54 54 53 52 52 51 51 51 51 50 50 51 51 51 51 51 53 52 52 53 54 53 54 54 56 55 53 51 50 49
38 42 44 46 48 49 49 49 49 48 49 51 52 52 52 52 52 51 51 52 52 51 51 51 51 50 50 50 50 50 50 50 51 54 55 54 55 54 54 52 51 49 47
34 39 44 46 47 49 49 49 49 48 48 50 51 52 52 52 51 52 52 53 53 53 52 52 52 51 51 51 51 51 50 51 51 53 55 55 55 55 54 51 48 48 46
30 38 41 44 47 48 49 49 49 48 48 48 49 51 52 52 52 52 52 52 52 53 52 52 52 52 52 52 51 51 52 53 54 55 55 54 54 52 51 49 49 47 44
30 32 38 40 44 46 48 48 49 50 49 48 48 49 51 52 52 52 52 52 52 51 51 51 51 52 52 51 51 51 54 54 55 54 53 54 53 52 50 49 48 45 42
28 30 32 34 39 43 47 48 48 49 50 49 48 49 50 51 51 51 51 51 51 51 51 51 52 52 53 52 53 53 54 54 53 54 54 54 53 52 51 47 46 44 41
30 30 30 31 32 37 43 47 48 49 50 49 49 49 49 50 50 50 50 50 50 50 50 50 51 51 52 52 52 53 54 54 53 53 52 53 51 49 47 46 44 42 40
34 33 31 31 32 35 38 42 47 48 49 50 49 49 49 49 50 50 50 50 50 51 50 51 51 52 53 53 52 51 54 54 54 53 52 47 46 45 42 39 36 35 37
39 39 39 37 34 34 35 40 42 47 49 50 49 49 49 49 49 50 50 50 51 51 52 52 52 53 54 53 52 52 53 54 53 50 47 44 40 40 37 34 31 30 30
40 40 41 40 39 37 35 35 38 42 46 48 49 49 50 50 49 50 50 51 51 52 53 53 53 54 55 52 52 49 46 44 41 41 40 38 35 34 33 29 28 26 27
41 44 46 46 46 42 41 37 39 41 43 46 48 50 50 51 50 51 51 52 53 53 49 45 44 44 45 43 44 45 40 36 34 33 34 33 32 32 32 31 29 26 25
42 45 47 47 47 49 50 45 42 43 46 49 49 50 51 51 52 53 51 47 43 40 37 36 35 36 37 37 37 37 35 32 30 30 30 31 31 31 30 30 29 26 21
41 43 44 45 44 45 50 50 49 50 51 51 49 47 47 45 45 44 41 40 38 35 33 31 30 31 32 33 33 32 32 31 29 27 28 29 29 28 27 25 22 20 18
37 39 40 39 39 40 43 43 43 43 42 41 39 38 38 38 39 38 37 36 35 33 31 29 28 27 28 29 30 29 29 28 27 28 29 28 27 25 22 21 20 19 19
32 34 34 33 32 33 35 38 40 39 38 36 34 33 33 32 33 33 33 33 32 30 29 28 26 25 25 25 26 26 27 27 27 28 27 26 24 22 21 20 21 21 18
30 30 31 30 30 30 31 33 36 35 33 32 32 31 30 29 27 27 29 29 30 31 28 27 26 24 23 24 26 25 25 25 25 25 25 23 23 22 21 21 20 19 15
27 27 27 27 28 28 29 30 32 32 31 30 30 30 29 28 26 25 25 28 28 28 27 27 25 26 26 26 26 26 25 25 26 25 23 23 23 22 21 20 19 17 16

GFSMW_sfc_30mbdewp_063.txt.gz
Dewpoint
44 46 46 49 52 54 57 58 58 57 55 56 56 56 56 57 57 57 54 53 51 51 50 51 54 53 49 47 49 45 44 41 40 36 38 40 42 42 41 42 42 43 45
43 45 46 48 51 52 55 57 58 56 55 55 55 55 56 56 56 58 57 55 52 52 52 51 53 53 50 51 50 50 47 44 42 36 38 39 41 42 43 41 42 44 42
42 44 46 47 50 51 53 55 57 57 56 55 56 56 56 56 55 56 56 55 55 51 53 54 54 53 53 53 53 53 50 47 46 45 44 42 40 43 43 45 43 44 44
39 44 46 47 49 50 52 54 55 57 56 56 54 54 53 53 53 53 56 56 54 53 53 55 55 55 53 53 55 54 53 52 49 49 48 50 49 46 45 44 46 45 44
37 42 45 46 47 50 52 52 55 55 56 56 55 54 52 53 53 53 53 53 53 54 54 55 55 55 55 54 56 56 56 54 52 52 51 50 50 51 49 47 44 45 44
34 41 44 46 45 48 51 51 52 54 56 56 56 54 53 52 53 54 53 52 52 53 55 56 55 56 57 56 56 56 57 56 55 54 53 52 49 48 48 47 49 49 50
34 39 44 46 44 46 50 51 52 52 55 56 56 55 54 53 52 53 53 52 51 53 55 56 56 56 57 55 54 57 57 56 56 55 54 53 52 51 49 48 48 49 51
35 39 42 46 46 46 49 50 51 51 54 56 56 56 55 55 53 52 52 53 52 53 55 57 56 55 54 55 55 54 54 53 54 55 55 54 53 53 52 50 50 50 50
32 38 41 46 46 46 47 49 49 50 52 55 55 55 56 55 54 53 53 53 53 53 54 55 55 54 54 55 53 52 51 52 53 53 55 55 54 52 53 53 52 52 49
25 36 40 44 47 47 47 49 48 49 51 53 55 55 56 56 55 54 54 53 53 53 53 54 55 54 53 52 52 51 50 51 53 53 54 54 55 55 54 54 54 54 52
33 36 40 43 47 48 47 48 48 47 49 52 53 54 55 55 56 55 54 54 54 53 53 52 53 52 52 51 51 52 52 51 52 53 54 53 54 54 55 56 55 54 52
30 37 41 43 46 48 49 48 48 47 47 50 52 53 54 55 55 55 55 55 54 53 53 53 52 51 51 52 51 51 51 52 52 52 53 52 53 54 55 56 55 53 52
31 36 40 42 45 47 48 49 49 48 47 47 50 53 54 55 55 55 55 54 54 54 53 53 52 51 51 52 52 52 52 52 52 52 52 52 52 54 55 54 53 52 51
28 29 36 39 43 45 47 48 49 50 48 47 48 50 53 53 54 54 54 54 54 54 53 53 53 53 52 52 53 52 53 52 52 53 53 52 53 54 55 54 52 51 50
31 30 31 31 35 41 45 46 48 49 50 49 47 49 52 53 53 54 54 54 54 54 54 54 54 54 54 53 53 53 53 53 53 53 53 54 55 54 53 52 52 51 49
36 36 36 32 31 32 37 43 46 48 49 50 49 49 50 51 52 53 53 54 54 54 54 53 53 53 53 51 50 52 53 52 52 53 54 55 53 52 51 51 51 52 48
38 38 38 38 38 36 35 36 40 46 48 49 50 50 50 50 52 53 52 53 53 54 53 53 53 53 53 52 50 49 52 53 54 54 54 54 54 52 52 46 42 41 41
39 40 42 42 43 43 40 38 36 39 46 48 49 49 50 51 51 52 52 52 52 53 53 53 53 53 53 52 50 49 51 53 54 54 54 54 53 48 43 38 34 32 32
39 41 44 46 47 46 47 45 39 35 38 45 47 49 49 49 50 51 52 52 52 53 53 53 53 52 53 52 50 50 51 53 48 44 44 45 41 39 36 33 30 29 28
39 41 43 45 44 45 46 48 47 41 37 38 42 47 48 49 49 51 52 53 53 53 53 51 44 43 45 42 46 47 45 39 35 33 33 34 34 33 33 32 31 27 26
38 40 42 42 39 38 40 49 49 49 51 52 50 47 48 49 50 51 51 52 50 43 39 35 35 35 36 36 37 38 37 33 31 30 30 31 32 32 32 31 29 26 27
35 36 38 38 35 34 35 39 41 43 45 46 44 44 44 45 47 46 43 41 39 36 33 32 30 30 31 33 33 33 32 31 29 28 29 29 29 29 29 27 27 27 27
34 34 35 34 33 32 33 32 36 39 39 37 37 36 36 36 36 37 37 36 36 33 31 30 28 27 28 29 30 30 30 29 28 27 28 27 26 26 25 26 26 26 25
32 32 32 30 30 31 31 32 33 35 35 33 32 31 30 30 31 31 32 32 31 30 29 27 25 25 25 26 27 28 28 27 26 26 26 25 24 24 24 25 25 25 24
30 30 29 28 27 28 29 30 32 32 32 31 30 29 28 28 27 27 28 28 28 30 28 27 26 25 24 26 27 27 26 26 26 26 26 25 25 24 25 24 23 22 22
26 25 25 25 25 26 26 28 30 30 29 28 28 28 27 26 25 24 24 28 28 28 28 28 26 27 27 27 27 27 27 28 29 28 26 25 25 24 24 23 21 21 19

GFSMW_sfc_30mbdewp_069.txt.gz
Dewpoint
48 47 48 53 54 58 58 58 58 58 58 57 57 56 56 58 58 58 59 58 57 57 57 57 57 56 56 54 52 51 49 49 49 47 47 49 50 50 51 53 52 54 54
47 46 48 51 54 57 58 58 58 58 57 57 57 56 56 58 58 58 58 57 57 55 55 56 56 53 56 55 52 48 48 47 48 45 45 43 44 47 48 49 50 52 52
46 46 48 50 55 56 58 57 57 57 57 57 57 56 56 56 56 56 56 56 56 54 53 55 55 53 55 54 52 47 45 44 45 45 43 41 40 42 44 46 46 47 48
46 45 47 49 55 56 57 58 56 56 56 57 56 55 54 53 54 54 55 54 55 53 52 53 53 52 54 51 50 50 47 46 42 45 47 47 48 42 43 45 45 45 47
45 45 46 49 51 56 56 57 56 55 55 56 56 54 52 53 53 54 53 53 54 53 52 53 52 52 53 53 52 53 50 48 47 44 46 47 49 51 48 44 44 46 47
45 46 47 50 51 56 56 56 55 55 55 56 55 54 53 52 52 53 54 54 54 54 54 51 55 54 53 55 54 53 53 53 53 49 47 46 46 48 49 48 47 44 45
45 46 47 48 50 55 56 56 55 54 55 55 55 54 54 53 51 52 53 54 53 53 54 55 54 56 55 55 55 55 54 54 53 55 54 54 53 52 51 49 48 48 47
45 46 47 47 50 53 54 55 55 54 55 55 54 54 54 54 53 51 52 53 53 53 52 55 56 55 54 55 55 55 55 55 54 54 55 55 54 54 53 51 49 48 49
39 46 47 47 49 52 53 53 55 55 55 55 55 54 54 53 53 52 51 52 53 52 52 52 56 56 55 54 55 55 54 55 54 53 55 55 55 54 54 54 52 49 46
34 44 47 47 49 52 53 53 54 54 55 55 55 55 54 53 53 54 52 51 51 52 51 51 54 55 55 55 54 54 54 53 54 54 53 52 52 53 54 52 53 53 50
35 37 46 47 48 51 53 52 52 52 55 55 55 54 55 54 53 53 54 53 52 52 52 51 53 55 55 55 55 54 53 52 51 51 51 52 52 52 53 54 53 52 52
37 40 47 48 48 49 52 52 52 52 53 54 55 53 55 55 55 54 53 54 53 53 52 52 52 52 54 53 53 53 53 53 52 51 50 51 52 52 52 53 53 53 52
38 40 43 46 48 47 50 51 51 51 53 54 54 54 54 55 55 55 55 54 54 53 53 53 51 51 53 53 53 53 52 52 52 51 51 50 50 51 52 53 53 53 53
41 43 44 46 48 49 50 50 51 50 51 54 55 54 53 54 54 54 54 55 54 54 53 53 53 52 52 53 54 54 54 53 53 52 52 51 51 50 51 52 53 53 53
42 43 45 47 47 48 49 50 50 51 51 51 53 54 55 54 54 54 54 56 55 54 54 54 53 52 52 52 53 54 53 53 53 53 52 51 51 51 52 52 52 53 53
41 43 46 44 43 44 45 46 47 49 51 52 50 53 54 55 55 54 54 54 56 55 55 55 54 54 53 52 51 53 53 52 52 51 51 51 50 49 49 49 50 52 52
42 44 43 41 41 41 41 43 47 47 49 49 50 52 52 54 55 55 55 54 55 56 55 55 55 55 54 52 51 50 51 52 51 51 51 51 52 51 52 50 46 42 41
42 41 39 38 37 37 38 42 43 43 43 43 45 46 46 47 51 55 55 55 56 55 55 55 55 55 55 53 52 50 50 52 52 52 53 53 53 53 53 47 39 34 33
39 38 37 35 34 34 36 37 38 38 39 39 41 42 41 42 45 50 53 54 54 54 54 55 55 55 54 45 46 49 50 52 49 43 41 44 47 47 48 41 34 30 29
36 35 34 32 32 32 34 35 35 35 35 35 36 36 36 38 39 43 44 53 54 54 54 44 40 40 41 39 43 48 48 45 38 33 34 35 36 36 37 36 31 28 27
32 33 32 30 30 30 32 33 34 33 33 32 32 32 32 33 34 38 39 41 44 41 38 35 33 33 34 34 37 41 42 37 32 31 30 31 32 32 31 30 28 27 27
29 29 29 28 27 28 30 31 31 32 31 30 28 28 28 29 30 31 33 34 35 32 31 30 29 29 30 32 32 32 32 31 29 28 29 30 30 30 29 29 28 28 28
26 26 26 25 26 27 28 29 30 30 29 28 26 26 26 27 27 27 28 30 30 30 28 27 26 26 27 27 28 29 29 29 28 28 29 28 27 26 27 28 28 28 27
24 24 24 24 25 26 27 29 30 29 28 27 26 26 25 25 26 26 26 26 27 26 26 26 25 25 26 26 26 26 26 25 25 26 26 25 24 24 24 24 24 24 23
23 23 23 24 25 25 26 27 30 29 27 26 26 25 25 24 24 25 26 25 27 27 25 26 26 25 25 27 28 27 26 27 27 26 25 23 22 21 21 21 21 21 21
22 22 23 23 25 25 26 26 28 29 28 26 26 26 25 24 23 22 22 27 27 28 28 28 27 27 28 29 29 29 28 28 27 23 22 21 21 20 19 17 17 18 18

GFSMW_sfc_30mbdewp_072.txt.gz
Dewpoint
47 50 54 56 57 57 57 57 58 58 57 57 57 58 57 58 59 60 60 59 60 58 54 53 56 53 53 52 52 52 49 49 50 48 49 51 53 53 52 53 53 53 54
47 49 54 55 57 56 56 57 57 58 58 56 57 56 57 58 58 59 59 59 58 59 56 53 57 56 54 55 53 51 49 48 49 47 47 46 47 50 52 53 53 53 54
47 47 52 54 57 57 57 57 57 57 57 57 56 56 56 57 57 57 58 59 58 57 58 55 56 56 56 54 53 50 48 47 48 47 46 43 44 45 46 49 52 52 53
47 46 50 53 56 57 57 57 57 57 57 57 56 55 54 54 55 56 57 57 58 57 56 57 56 55 56 54 53 51 48 47 46 46 46 45 44 43 42 45 47 49 51
46 46 48 52 55 57 57 56 56 56 56 56 55 55 54 54 55 56 56 56 57 56 55 56 56 55 56 55 53 53 50 48 46 44 46 47 50 49 45 41 43 46 46
46 46 48 53 55 57 56 56 55 55 56 56 56 55 54 54 54 54 54 55 55 55 54 55 55 55 55 56 54 54 52 49 45 45 45 46 46 48 49 47 46 43 44
45 45 48 51 55 55 55 55 55 54 55 56 55 54 53 53 53 53 53 53 54 54 52 53 55 54 54 55 54 54 54 52 48 47 48 51 48 50 49 48 47 47 46
45 46 48 49 54 55 55 55 54 53 54 55 55 55 54 53 52 53 53 52 53 53 53 53 54 56 54 54 55 54 54 54 53 53 53 53 54 54 54 51 49 47 48
45 46 47 49 54 55 55 55 54 53 54 55 55 55 54 53 52 52 53 53 53 53 53 54 54 54 55 54 54 54 54 54 54 54 54 53 54 55 55 54 53 50 47
45 46 47 48 52 54 55 55 55 54 54 54 54 55 54 54 53 52 51 53 53 53 53 52 55 55 55 54 54 54 54 54 54 54 53 53 53 53 53 54 54 53 51
40 46 47 48 51 53 54 55 55 55 54 54 54 54 54 54 54 53 52 51 52 53 53 52 52 54 55 55 54 53 53 53 53 53 53 52 51 51 52 53 53 51 51
44 46 47 48 51 52 52 53 55 55 55 55 55 54 54 54 53 53 54 53 51 51 52 52 52 51 52 54 54 54 53 53 52 52 52 52 52 51 51 51 52 52 52
47 49 50 50 50 51 52 52 53 53 55 55 55 54 54 54 54 54 54 54 54 52 51 52 51 51 52 52 53 53 53 53 52 52 52 51 51 51 51 51 51 52 52
47 46 46 47 48 49 49 50 51 52 53 54 55 54 53 54 54 54 54 54 54 54 54 53 52 52 51 51 52 53 53 52 52 52 52 52 51 50 50 51 51 51 51
42 42 43 43 43 44 45 48 49 50 53 54 54 54 54 54 54 54 54 55 55 54 54 53 53 53 52 51 51 51 52 52 52 52 52 52 52 51 50 50 50 50 50
41 39 39 39 38 39 42 44 44 44 45 46 50 51 54 54 54 54 54 54 54 54 54 54 53 53 53 52 51 51 52 53 53 53 53 53 52 51 50 49 49 50 51
38 37 37 36 35 36 38 39 40 41 41 42 43 43 44 46 51 54 54 54 54 54 54 54 54 54 54 52 51 50 51 52 53 53 53 53 53 52 52 49 47 47 45
35 34 33 33 33 34 36 37 37 37 37 38 38 39 40 41 43 46 48 54 54 54 54 55 55 54 54 54 52 51 51 52 53 54 53 53 52 52 51 51 50 43 37
33 32 31 31 31 32 34 35 34 33 33 33 34 35 36 38 39 41 42 44 46 54 54 55 56 55 55 43 45 48 51 52 52 52 47 47 49 51 50 50 43 33 30
31 30 29 29 29 30 33 33 32 31 30 30 30 31 32 34 34 37 38 39 42 44 43 36 34 33 35 34 36 40 49 51 47 36 34 34 36 37 42 43 34 29 27
29 29 27 27 28 29 31 31 31 29 29 28 27 27 29 29 30 32 34 35 33 32 31 29 28 28 30 31 33 35 38 38 32 30 30 31 32 31 31 31 29 28 28
27 27 26 26 27 29 30 30 29 29 28 27 26 26 27 27 27 29 30 31 30 29 28 28 27 27 27 29 30 30 31 31 29 28 29 30 30 29 29 28 28 28 28
25 25 25 26 26 27 29 28 28 28 27 26 25 25 25 25 26 26 27 27 28 28 27 26 25 26 26 27 28 28 27 27 26 26 26 26 26 25 25 25 25 25 24
23 24 24 24 25 26 27 29 29 27 26 25 25 24 23 24 25 25 25 26 26 26 26 26 25 26 26 26 27 27 27 26 25 25 25 24 23 22 22 22 22 22 22
23 23 23 24 24 25 25 26 28 27 26 26 25 23 23 22 23 25 25 25 27 27 25 25 26 26 26 28 29 28 27 26 26 24 23 22 21 19 19 19 20 20 19
20 20 20 21 23 23 23 24 26 26 25 24 23 23 22 22 22 21 22 25 24 25 27 27 26 27 27 27 26 26 25 25 24 21 19 18 18 17 17 17 16 17 17

GFSMW_sfc_30mbdewp_075.txt.gz
Dewpoint
41 49 55 57 57 58 58 58 58 58 58 58 58 56 57 58 60 61 61 60 58 56 54 54 53 52 48 49 51 51 48 50 51 51 51 51 52 52 52 53 53 53 54
46 52 55 56 57 57 57 57 57 57 57 57 57 57 57 58 59 60 60 61 59 57 53 54 52 51 48 50 52 50 49 49 50 50 49 48 50 52 52 52 53 53 53
45 52 54 56 56 56 56 56 57 57 56 56 57 56 57 57 57 58 58 59 60 58 55 54 52 52 50 51 52 51 49 47 49 49 48 46 47 49 50 51 52 52 53
46 50 53 55 56 56 56 56 56 57 57 57 55 55 54 55 55 57 58 58 59 59 56 56 56 55 53 53 53 52 50 48 48 47 48 46 45 47 44 47 51 52 52
46 47 52 54 56 56 56 56 56 56 56 56 55 55 54 54 56 56 57 57 58 58 58 57 57 56 57 55 54 52 49 49 49 47 47 47 48 47 44 43 46 47 50
44 46 50 53 56 56 55 55 55 55 56 56 55 55 54 54 54 55 56 56 57 56 57 58 57 56 57 55 54 54 52 49 49 48 47 46 46 47 46 43 43 42 45
42 46 49 53 55 55 55 54 55 54 55 56 55 54 54 54 53 55 55 55 56 56 56 57 57 56 56 57 56 55 54 54 53 50 48 48 47 49 49 47 47 46 46
40 46 49 53 54 55 54 54 54 54 54 55 55 54 54 54 53 54 54 55 55 55 56 55 56 56 56 56 57 56 55 55 54 53 51 51 49 50 50 48 47 46 47
41 46 49 53 54 55 54 54 54 54 54 54 54 54 54 53 53 53 54 54 55 54 54 53 55 55 55 56 56 55 54 54 54 54 52 51 52 53 53 52 51 47 47
45 46 48 52 54 55 55 54 54 54 53 53 53 54 54 53 53 52 53 53 53 53 53 53 54 55 55 55 55 55 54 54 54 54 53 53 53 54 55 54 54 53 51
46 46 48 51 54 55 54 54 53 53 53 53 53 54 54 54 53 52 52 53 53 53 53 53 53 54 54 54 54 53 53 54 53 53 53 52 53 52 53 53 53 52 51
48 48 50 52 53 53 54 53 53 53 53 54 53 52 54 54 54 54 53 52 52 53 53 53 53 53 54 54 53 53 53 53 52 53 53 53 52 52 51 51 51 50 51
46 47 48 49 50 52 53 54 54 54 54 54 53 53 53 54 53 54 54 53 52 52 52 53 52 52 52 53 54 54 53 53 53 53 53 52 52 52 51 51 51 51 51
42 42 43 44 46 49 50 50 50 53 55 55 54 53 54 54 54 53 53 54 54 53 52 52 52 52 52 52 52 52 53 53 53 53 53 52 52 52 51 51 51 51 50
39 40 39 40 41 43 44 44 46 46 48 54 55 54 54 54 54 54 54 54 54 54 54 53 52 52 52 52 51 51 52 52 52 52 52 53 52 52 51 50 50 50 50
36 36 36 36 37 38 39 40 40 41 43 43 43 44 45 49 54 54 54 54 54 54 54 54 53 53 53 52 51 51 51 51 52 52 52 52 51 51 50 49 49 50 50
33 33 33 33 34 35 36 35 36 37 38 38 39 40 41 42 43 44 48 53 54 54 55 54 54 53 53 52 51 50 51 51 51 51 52 52 52 52 52 50 48 48 47
32 31 31 32 32 34 34 34 33 32 33 33 34 35 36 38 39 41 42 43 44 47 53 54 54 54 54 40 44 49 51 52 52 52 52 53 53 53 53 53 52 50 49
31 30 30 30 31 33 33 32 30 30 29 29 30 31 33 34 35 36 37 39 41 40 39 35 35 38 35 33 35 37 47 52 52 53 47 42 46 48 46 52 51 47 33
29 28 28 29 30 31 32 30 28 28 27 27 28 29 29 30 31 34 34 35 35 32 30 28 29 30 30 32 34 36 40 44 45 33 32 32 33 34 38 42 45 34 27
28 28 28 28 29 30 30 29 27 27 26 27 27 27 27 28 29 30 31 31 30 29 28 28 28 28 30 30 32 33 33 32 31 29 29 30 31 31 31 31 30 28 28
26 26 26 27 28 29 29 28 27 27 26 25 25 25 26 26 27 28 28 29 29 28 28 27 26 27 27 29 29 29 29 29 27 26 26 27 28 28 28 27 27 26 25
25 25 26 26 27 27 29 27 27 26 25 24 24 24 25 25 25 26 26 26 26 26 26 26 25 26 26 27 28 27 26 26 25 26 25 24 24 24 24 24 24 24 23
24 24 24 24 25 26 26 28 27 26 25 23 23 23 24 24 24 24 25 25 24 24 24 25 25 26 26 26 27 26 25 25 24 24 22 22 22 21 21 20 21 21 20
22 22 23 23 23 24 24 25 26 24 23 23 22 22 22 23 22 23 24 23 25 25 23 23 24 23 23 25 25 25 24 23 22 21 19 18 18 17 17 17 17 18 17
20 20 20 20 22 22 22 22 24 25 23 22 22 22 21 21 20 20 21 22 22 22 22 23 23 24 23 23 23 23 22 21 19 17 16 16 15 14 14 14 14 14 14